SCP
0 0 0 0 0 0 0 0 0 0 0 0 0 0 0 0 0 0 0 -0 -0 -0 0 -0 0 0 -0 -0 -0 0 0 0 0 0 0 0 0 0 0 0 0 0 0
0 0 0 0 0 0 0 0 0 0 0 0 0 0 0 0 0 0 0 0 0 0 0 0 0 -0 -0 0 -0 0 0 0 0 0 0 0 0 0 0 0 0 0 0
0 0 0 0 0 0 0 0 0 0 0 0 0 0 0 0 0 0 0 0 0 0 0 0 -0 -0 0 -0 0 0 0 0 0 0 0 0 0 0 0 0 0 0 0
0 0 0 0 0 0 0 0 0 0 0 0 0 0 0 0 0 0 0 0 0 0 0 0 0 -0 0 0 0 0 0 0 0 0 0 0 0 0 0 0 0 0 0
0 0 0 0 0 0 0 0 0 0 0 0 0 0 0 0 0 0 0 0 0 0 0 0 0 0 0 0 -0 0 0 0 0 0 0 0 0 0 0 0 0 0 0
0 0 0 0 0 0 0 0 0 0 0 0 0 0 0 0 0 0 0 0 0 0 0 0 0 0 0 0 0 0 0 0 0 0 0 0 0 0 0 0 0 0 0
0 0 0 0 0 0 0 0 0 0 0 0 0 0 0 0 0 0 0 0 0 0 0 0 0 0 0 0 0 0 0 0 0 0 0 0 0 0 0 0 0 0 0
0 0 0 0 0 0 0 0 0 0 0 0 0 0 0 0 0 0 0 0 0 0 0 0 0 0 0 0 0 0 0 0 0 0 0 0 0 0 0 0 0 0 0
0 0 0 0 0 0 0 0 0 0 0 0 0 0 0 0 0 0 0 0 0 0 0 0 0 0 0 0 0 0 0 0 0 0 0 0 0 0 0 0 0 0 0
0 0 0 0 0 0 0 0 0 0 0 0 0 0 0 0 0 0 0 0 0 0 0 -0 0 0 0 0 0 0 0 0 0 0 0 0 0 0 0 0 0 0 0
0 0 0 0 0 0 0 0 0 0 0 0 0 0 0 0 0 0 0 0 0 0 -0 -0 0 0 0 0 0 0 0 0 0 0 0 0 0 0 0 0 0 0 0
0 0 0 0 0 0 0 0 0 0 0 0 0 0 0 0 0 0 0 0 0 0 0 0 -0 0 0 0 0 0 0 0 -0 0 0 0 0 0 0 0 0 0 0
0 0 0 0 0 0 0 0 0 0 0 0 0 0 0 0 0 0 0 0 0 0 0 0 0 0 0 0 0 0 0 0 0 0 0 0 0 0 0 0 0 0 0
0 0 0 0 0 0 0 0 0 0 0 0 0 0 0 0 0 0 0 0 0 0 0 -0 0 0 0 0 0 0 0 0 0 0 0 0 0 0 0 0 0 0 0
0 0 0 0 0 0 0 0 0 0 0 0 0 0 0 0 0 0 0 0 0 0 -0 -0 -0 -0 -0 0 0 0 0 0 0 0 0 0 0 0 0 0 0 0 0
0 0 0 0 0 0 0 0 0 0 0 0 0 0 0 0 0 0 0 0 0 0 -0 -0 -0 -0 -0 0 0 0 0 0 0 0 0 0 0 0 0 0 0 0 0
0 0 0 0 0 0 0 0 0 0 0 0 0 0 0 0 0 0 0 0 0 0 -0 -0 -0 -0 0 0 0 0 0 0 0 0 0 0 0 0 0 0 0 0 0
0 0 0 0 0 0 0 0 0 0 0 0 0 0 0 0 0 0 0 0 0 0 -0 -0 -0 -0 0 0 0 0 0 0 0 0 0 0 0 0 0 0 0 0 0
0 0 0 0 0 0 0 0 0 0 0 0 0 0 0 0 0 0 0 0 0 0 -0 -0 -0 -0 0 0 0 0 0 0 0 0 0 0 0 0 0 0 0 0 0
0 0 0 0 0 0 0 0 0 0 0 0 0 0 0 0 0 0 0 0 0 0 -0 -0 -0 -0 0 0 0 0 0 0 0 0 0 0 0 0 0 0 0 0 0
0 0 0 0 0 0 0 0 0 0 0 0 0 0 0 0 0 0 0 0 0 0 -0 -0 -0 -0 0 0 0 0 0 0 0 0 0 0 0 0 0 0 0 0 0
0 0 0 0 0 0 0 0 0 0 0 0 0 0 0 0 0 0 0 0 0 0 0 0 -0 -0 -0 0 0 0 0 0 0 0 0 0 0 0 0 0 0 0 0
0 0 0 0 0 0 0 0 0 0 0 0 0 0 0 0 0 0 0 0 0 0 0 -0 0 -0 -0 -0 0 0 0 0 0 0 0 0 0 0 0 0 0 0 0
0 0 0 0 0 0 0 0 0 0 0 0 0 0 0 0 0 0 0 0 0 0 0 0 0 0 0 0 0 0 0 0 0 0 0 0 0 0 0 0 0 0 0
0 0 0 0 0 0 0 0 0 0 0 0 0 0 0 0 0 0 0 0 0 0 0 0 0 0 -0 -0 0 0 0 0 0 0 0 0 0 0 0 0 0 0 0
0 0 0 0 0 0 0 0 0 0 0 0 0 0 0 0 0 0 0 0 0 0 0 0 0 -0 -0 -0 -0 0 0 0 0 0 0 0 0 0 0 0 0 0 0
Wind_Speed_500mb
39 40 41 45 48 48 46 45 47 49 52 56 61 65 68 68 69 71 71 72 74 76 78 80 81 82 84 80 79 74 87 100 96 90 90 78 77 87 98 99 93 85 79
44 44 43 45 49 48 47 46 48 49 52 57 62 66 69 69 68 70 72 73 74 76 78 81 82 82 84 81 78 84 69 89 99 106 95 89 95 88 90 87 100 92 83
49 47 45 47 50 49 48 50 50 52 54 57 62 67 70 70 70 69 70 72 73 73 73 75 80 79 84 85 82 72 73 58 79 79 75 85 96 97 86 91 96 91 85
48 49 47 48 52 52 52 52 51 53 56 60 63 67 70 69 71 71 70 71 73 73 70 70 72 75 75 83 84 81 71 62 57 93 96 101 94 97 87 94 98 96 87
40 45 48 52 55 54 55 53 52 55 57 61 65 67 70 71 70 73 72 70 74 75 73 68 69 69 69 67 74 78 76 62 56 55 81 84 85 89 94 102 95 93 90
40 45 50 56 57 56 56 53 53 55 58 62 67 70 72 74 71 68 68 69 72 73 75 74 68 69 69 69 68 66 64 58 52 48 70 74 84 97 103 98 99 102 85
44 50 54 54 54 57 55 54 54 55 59 64 66 70 72 71 71 69 67 68 70 71 72 73 72 67 65 71 70 69 66 52 37 47 51 58 77 79 94 100 102 108 106
52 54 56 55 55 55 55 54 54 56 60 64 68 70 70 67 69 69 66 66 68 71 70 69 70 69 63 63 74 70 67 61 50 40 59 57 50 71 77 89 102 98 93
58 59 58 56 54 55 54 55 55 57 60 64 66 66 66 65 65 66 63 65 69 71 68 69 72 67 62 60 71 70 67 63 58 43 46 55 64 56 58 70 82 89 74
60 63 60 53 53 55 55 54 54 57 61 64 64 60 59 61 59 61 55 59 70 68 74 79 69 67 62 66 63 64 68 69 66 57 37 37 46 57 49 61 81 86 87
61 60 58 52 51 53 52 50 52 58 61 60 60 57 53 52 53 53 49 54 58 67 78 82 74 67 70 70 57 52 58 64 60 55 40 36 39 41 40 51 72 82 95
59 59 52 48 48 48 47 49 54 57 58 58 58 56 51 47 47 49 46 50 48 61 71 75 71 74 77 65 52 45 51 54 51 43 31 29 26 31 38 52 71 78 84
59 55 49 46 45 45 48 51 54 52 53 52 53 56 58 56 50 47 45 54 52 58 63 64 79 75 65 53 42 38 40 44 43 36 31 26 25 22 31 44 61 54 70
59 53 49 46 45 48 50 52 52 47 48 47 48 53 57 58 54 49 58 61 63 64 64 75 64 63 55 47 41 34 30 35 36 35 30 24 17 22 13 34 45 57 55
56 51 48 46 48 49 50 46 46 41 43 45 45 48 51 53 50 48 49 54 57 56 67 67 62 60 58 50 39 34 32 30 32 32 29 25 17 14 17 19 32 41 51
52 48 46 47 48 48 48 40 37 40 39 38 41 37 41 43 43 44 45 46 52 53 59 62 61 57 57 55 51 43 35 33 31 31 27 25 20 11 13 12 23 38 43
48 46 47 49 48 47 45 43 37 30 37 38 35 37 39 42 39 42 42 42 53 53 52 52 53 53 54 52 51 47 43 35 31 31 28 26 22 15 9 13 10 27 36
46 48 49 49 47 45 43 40 41 43 40 26 27 37 35 38 42 43 38 41 48 43 45 49 51 51 50 50 49 48 42 37 30 27 25 23 22 16 6 7 13 12 19
47 47 48 47 45 43 42 41 43 42 40 38 32 26 35 37 38 37 35 38 44 46 45 46 46 48 49 48 46 43 42 40 36 29 25 22 21 18 7 4 5 10 13
48 46 46 46 44 45 44 45 43 41 37 36 37 35 33 41 38 34 35 37 39 43 44 45 44 45 47 45 44 42 39 37 33 28 25 22 19 18 14 6 5 3 13
50 45 47 48 45 46 46 44 44 41 38 37 35 34 37 42 44 43 43 41 41 43 44 45 44 44 45 45 41 40 38 35 34 31 27 22 19 14 12 8 3 9 5
50 48 47 46 46 49 47 45 44 43 39 38 37 35 35 39 42 44 43 43 41 41 42 46 45 43 44 45 43 38 35 34 32 31 27 22 22 16 11 9 3 6 9
53 52 48 45 47 48 47 47 46 43 41 39 39 39 39 39 43 44 44 44 42 41 40 41 44 42 40 41 41 40 36 32 31 31 28 23 20 21 15 8 4 3 11
51 49 49 45 43 45 46 45 47 45 42 42 41 41 42 43 46 47 46 45 44 42 40 39 40 42 41 40 38 37 36 33 31 29 29 26 22 20 20 12 7 3 6
51 52 50 45 42 43 45 48 48 45 44 44 44 45 45 45 48 48 47 46 45 44 41 39 38 39 40 41 40 38 34 33 30 28 27 25 24 22 19 19 14 7 7
50 48 47 45 44 43 45 47 50 48 47 46 47 47 48 48 50 50 49 48 46 45 44 41 38 38 39 40 41 41 37 33 30 29 28 27 23 21 20 18 19 16 9
Wind_Direction_500mb
318 312 316 324 327 326 325 325 328 331 333 335 336 336 334 332 332 331 332 333 334 337 339 338 337 332 329 318 297 291 277 256 259 244 258 261 254 251 252 242 240 235 237
308 309 307 316 321 321 319 319 321 324 327 330 332 333 333 330 330 329 328 328 329 332 335 336 337 337 331 328 314 278 278 267 240 246 250 251 253 253 254 246 235 232 229
300 299 303 309 315 314 315 313 314 317 321 324 327 330 331 330 328 327 326 325 326 327 330 332 334 337 334 330 327 316 281 292 263 239 245 251 248 250 242 241 238 233 227
295 290 298 304 309 309 310 310 310 313 316 320 324 327 328 328 326 324 323 323 323 323 325 326 328 332 335 333 330 325 314 296 274 255 246 244 246 237 241 240 236 230 225
292 287 296 301 304 306 307 306 307 310 314 318 321 323 324 325 326 324 322 321 320 320 321 321 321 325 328 332 329 327 325 310 287 283 252 252 250 236 233 235 229 228 219
297 291 298 301 301 303 304 304 305 309 312 316 319 321 323 323 323 323 320 318 318 319 320 320 319 320 325 326 327 322 324 324 296 268 261 254 250 244 242 234 229 216 215
297 295 299 300 299 301 300 302 304 307 310 314 317 319 321 321 321 322 320 317 316 316 319 320 318 317 320 325 327 325 320 319 304 275 269 256 258 258 249 229 224 223 219
294 298 302 300 299 298 298 300 302 304 308 313 316 319 319 321 321 321 321 317 315 315 319 318 319 319 319 323 326 326 323 322 319 289 265 258 260 257 250 247 233 221 215
296 299 300 295 294 294 296 297 299 303 309 312 316 319 320 321 321 321 322 319 316 318 317 320 321 321 318 322 322 324 324 323 318 305 270 262 259 260 250 248 226 217 206
298 294 294 290 287 289 293 296 300 305 310 313 315 319 321 320 321 322 325 323 320 323 321 320 322 325 323 322 319 322 324 324 327 322 301 267 259 256 251 249 241 218 205
292 293 292 288 283 286 291 294 300 306 308 311 314 316 318 319 322 322 327 322 327 327 319 321 325 327 322 318 315 314 318 318 322 321 311 297 254 249 243 236 231 225 209
291 292 287 281 281 284 287 294 300 304 307 311 312 313 318 323 325 326 331 324 326 320 321 324 325 320 321 319 314 308 310 317 321 324 316 316 292 250 241 230 222 218 215
290 288 283 281 281 284 290 296 300 302 303 307 311 314 318 323 333 335 335 335 325 322 323 314 315 320 322 319 308 303 310 319 327 328 319 320 329 297 239 230 216 212 217
286 282 278 276 279 285 290 294 296 299 300 305 308 313 321 326 331 336 341 333 327 328 319 314 322 323 321 320 315 308 315 325 336 334 326 318 315 329 280 243 225 220 218
279 275 273 274 280 284 288 290 292 296 300 307 312 313 315 319 328 326 324 323 324 320 313 320 327 328 330 331 329 322 319 327 335 341 337 330 328 332 314 248 232 219 209
274 273 273 276 282 287 286 284 290 297 298 299 300 300 304 310 314 318 318 319 312 319 321 326 329 331 333 336 338 334 332 330 339 347 350 346 335 316 322 322 240 225 213
271 271 273 278 282 284 284 288 290 281 290 294 295 297 303 309 311 313 315 316 301 314 320 327 331 332 331 333 336 338 336 336 332 341 351 352 348 335 328 334 287 232 215
270 271 276 280 281 282 284 287 292 297 296 282 285 299 305 306 309 313 316 306 310 314 320 325 330 332 331 329 331 334 335 333 332 332 343 357 0 355 319 345 322 278 228
268 273 278 278 278 280 282 287 289 291 291 297 301 294 298 302 308 312 313 315 315 317 319 320 326 330 330 326 326 329 332 334 332 329 330 351 360 356 2 308 0 317 261
268 272 273 275 278 278 280 281 284 284 285 293 299 307 306 302 307 311 315 316 316 315 315 315 320 325 330 327 323 323 327 331 329 326 319 329 352 358 358 346 268 278 286
273 270 273 274 275 277 277 279 279 277 282 287 294 303 308 308 313 314 315 315 315 314 314 313 317 321 326 328 323 320 320 326 328 327 325 314 321 344 355 349 281 230 267
270 268 269 272 273 276 279 276 274 276 281 286 293 297 301 301 304 307 309 311 312 310 311 311 313 317 322 326 326 323 320 319 322 323 324 318 302 309 335 346 337 198 204
269 269 265 263 268 271 272 275 274 276 280 285 292 296 299 301 304 307 308 308 308 307 306 307 308 311 316 320 324 322 320 316 315 319 323 321 310 297 297 316 326 163 189
267 262 261 258 260 267 272 272 273 275 279 285 289 294 297 301 303 306 308 307 305 305 303 302 305 306 310 315 319 320 316 313 310 311 316 319 314 298 286 279 286 234 190
268 265 264 263 262 266 270 273 273 275 279 283 289 293 296 300 302 304 305 304 303 303 301 300 301 302 303 308 314 316 318 309 305 303 304 309 312 307 293 276 259 247 207
263 263 264 262 263 267 270 273 276 276 279 283 288 292 296 299 302 304 303 302 301 299 300 299 299 300 302 303 307 311 312 310 300 295 294 294 297 299 297 283 262 246 232
Wind_Speed_850mb
39 40 41 45 48 48 46 45 47 49 52 56 61 65 68 68 69 71 71 72 74 76 78 80 81 82 84 80 79 74 87 100 96 90 90 78 77 87 98 99 93 85 79
44 44 43 45 49 48 47 46 48 49 52 57 62 66 69 69 68 70 72 73 74 76 78 81 82 82 84 81 78 84 69 89 99 106 95 89 95 88 90 87 100 92 83
49 47 45 47 50 49 48 50 50 52 54 57 62 67 70 70 70 69 70 72 73 73 73 75 80 79 84 85 82 72 73 58 79 79 75 85 96 97 86 91 96 91 85
48 49 47 48 52 52 52 52 51 53 56 60 63 67 70 69 71 71 70 71 73 73 70 70 72 75 75 83 84 81 71 62 57 93 96 101 94 97 87 94 98 96 87
40 45 48 52 55 54 55 53 52 55 57 61 65 67 70 71 70 73 72 70 74 75 73 68 69 69 69 67 74 78 76 62 56 55 81 84 85 89 94 102 95 93 90
40 45 50 56 57 56 56 53 53 55 58 62 67 70 72 74 71 68 68 69 72 73 75 74 68 69 69 69 68 66 64 58 52 48 70 74 84 97 103 98 99 102 85
44 50 54 54 54 57 55 54 54 55 59 64 66 70 72 71 71 69 67 68 70 71 72 73 72 67 65 71 70 69 66 52 37 47 51 58 77 79 94 100 102 108 106
52 54 56 55 55 55 55 54 54 56 60 64 68 70 70 67 69 69 66 66 68 71 70 69 70 69 63 63 74 70 67 61 50 40 59 57 50 71 77 89 102 98 93
58 59 58 56 54 55 54 55 55 57 60 64 66 66 66 65 65 66 63 65 69 71 68 69 72 67 62 60 71 70 67 63 58 43 46 55 64 56 58 70 82 89 74
60 63 60 53 53 55 55 54 54 57 61 64 64 60 59 61 59 61 55 59 70 68 74 79 69 67 62 66 63 64 68 69 66 57 37 37 46 57 49 61 81 86 87
61 60 58 52 51 53 52 50 52 58 61 60 60 57 53 52 53 53 49 54 58 67 78 82 74 67 70 70 57 52 58 64 60 55 40 36 39 41 40 51 72 82 95
59 59 52 48 48 48 47 49 54 57 58 58 58 56 51 47 47 49 46 50 48 61 71 75 71 74 77 65 52 45 51 54 51 43 31 29 26 31 38 52 71 78 84
59 55 49 46 45 45 48 51 54 52 53 52 53 56 58 56 50 47 45 54 52 58 63 64 79 75 65 53 42 38 40 44 43 36 31 26 25 22 31 44 61 54 70
59 53 49 46 45 48 50 52 52 47 48 47 48 53 57 58 54 49 58 61 63 64 64 75 64 63 55 47 41 34 30 35 36 35 30 24 17 22 13 34 45 57 55
56 51 48 46 48 49 50 46 46 41 43 45 45 48 51 53 50 48 49 54 57 56 67 67 62 60 58 50 39 34 32 30 32 32 29 25 17 14 17 19 32 41 51
52 48 46 47 48 48 48 40 37 40 39 38 41 37 41 43 43 44 45 46 52 53 59 62 61 57 57 55 51 43 35 33 31 31 27 25 20 11 13 12 23 38 43
48 46 47 49 48 47 45 43 37 30 37 38 35 37 39 42 39 42 42 42 53 53 52 52 53 53 54 52 51 47 43 35 31 31 28 26 22 15 9 13 10 27 36
46 48 49 49 47 45 43 40 41 43 40 26 27 37 35 38 42 43 38 41 48 43 45 49 51 51 50 50 49 48 42 37 30 27 25 23 22 16 6 7 13 12 19
47 47 48 47 45 43 42 41 43 42 40 38 32 26 35 37 38 37 35 38 44 46 45 46 46 48 49 48 46 43 42 40 36 29 25 22 21 18 7 4 5 10 13
48 46 46 46 44 45 44 45 43 41 37 36 37 35 33 41 38 34 35 37 39 43 44 45 44 45 47 45 44 42 39 37 33 28 25 22 19 18 14 6 5 3 13
50 45 47 48 45 46 46 44 44 41 38 37 35 34 37 42 44 43 43 41 41 43 44 45 44 44 45 45 41 40 38 35 34 31 27 22 19 14 12 8 3 9 5
50 48 47 46 46 49 47 45 44 43 39 38 37 35 35 39 42 44 43 43 41 41 42 46 45 43 44 45 43 38 35 34 32 31 27 22 22 16 11 9 3 6 9
53 52 48 45 47 48 47 47 46 43 41 39 39 39 39 39 43 44 44 44 42 41 40 41 44 42 40 41 41 40 36 32 31 31 28 23 20 21 15 8 4 3 11
51 49 49 45 43 45 46 45 47 45 42 42 41 41 42 43 46 47 46 45 44 42 40 39 40 42 41 40 38 37 36 33 31 29 29 26 22 20 20 12 7 3 6
51 52 50 45 42 43 45 48 48 45 44 44 44 45 45 45 48 48 47 46 45 44 41 39 38 39 40 41 40 38 34 33 30 28 27 25 24 22 19 19 14 7 7
50 48 47 45 44 43 45 47 50 48 47 46 47 47 48 48 50 50 49 48 46 45 44 41 38 38 39 40 41 41 37 33 30 29 28 27 23 21 20 18 19 16 9
Wind_Direction_850mb
318 312 316 324 327 326 325 325 328 331 333 335 336 336 334 332 332 331 332 333 334 337 339 338 337 332 329 318 297 291 277 256 259 244 258 261 254 251 252 242 240 235 237
308 309 307 316 321 321 319 319 321 324 327 330 332 333 333 330 330 329 328 328 329 332 335 336 337 337 331 328 314 278 278 267 240 246 250 251 253 253 254 246 235 232 229
300 299 303 309 315 314 315 313 314 317 321 324 327 330 331 330 328 327 326 325 326 327 330 332 334 337 334 330 327 316 281 292 263 239 245 251 248 250 242 241 238 233 227
295 290 298 304 309 309 310 310 310 313 316 320 324 327 328 328 326 324 323 323 323 323 325 326 328 332 335 333 330 325 314 296 274 255 246 244 246 237 241 240 236 230 225
292 287 296 301 304 306 307 306 307 310 314 318 321 323 324 325 326 324 322 321 320 320 321 321 321 325 328 332 329 327 325 310 287 283 252 252 250 236 233 235 229 228 219
297 291 298 301 301 303 304 304 305 309 312 316 319 321 323 323 323 323 320 318 318 319 320 320 319 320 325 326 327 322 324 324 296 268 261 254 250 244 242 234 229 216 215
297 295 299 300 299 301 300 302 304 307 310 314 317 319 321 321 321 322 320 317 316 316 319 320 318 317 320 325 327 325 320 319 304 275 269 256 258 258 249 229 224 223 219
294 298 302 300 299 298 298 300 302 304 308 313 316 319 319 321 321 321 321 317 315 315 319 318 319 319 319 323 326 326 323 322 319 289 265 258 260 257 250 247 233 221 215
296 299 300 295 294 294 296 297 299 303 309 312 316 319 320 321 321 321 322 319 316 318 317 320 321 321 318 322 322 324 324 323 318 305 270 262 259 260 250 248 226 217 206
298 294 294 290 287 289 293 296 300 305 310 313 315 319 321 320 321 322 325 323 320 323 321 320 322 325 323 322 319 322 324 324 327 322 301 267 259 256 251 249 241 218 205
292 293 292 288 283 286 291 294 300 306 308 311 314 316 318 319 322 322 327 322 327 327 319 321 325 327 322 318 315 314 318 318 322 321 311 297 254 249 243 236 231 225 209
291 292 287 281 281 284 287 294 300 304 307 311 312 313 318 323 325 326 331 324 326 320 321 324 325 320 321 319 314 308 310 317 321 324 316 316 292 250 241 230 222 218 215
290 288 283 281 281 284 290 296 300 302 303 307 311 314 318 323 333 335 335 335 325 322 323 314 315 320 322 319 308 303 310 319 327 328 319 320 329 297 239 230 216 212 217
286 282 278 276 279 285 290 294 296 299 300 305 308 313 321 326 331 336 341 333 327 328 319 314 322 323 321 320 315 308 315 325 336 334 326 318 315 329 280 243 225 220 218
279 275 273 274 280 284 288 290 292 296 300 307 312 313 315 319 328 326 324 323 324 320 313 320 327 328 330 331 329 322 319 327 335 341 337 330 328 332 314 248 232 219 209
274 273 273 276 282 287 286 284 290 297 298 299 300 300 304 310 314 318 318 319 312 319 321 326 329 331 333 336 338 334 332 330 339 347 350 346 335 316 322 322 240 225 213
271 271 273 278 282 284 284 288 290 281 290 294 295 297 303 309 311 313 315 316 301 314 320 327 331 332 331 333 336 338 336 336 332 341 351 352 348 335 328 334 287 232 215
270 271 276 280 281 282 284 287 292 297 296 282 285 299 305 306 309 313 316 306 310 314 320 325 330 332 331 329 331 334 335 333 332 332 343 357 0 355 319 345 322 278 228
268 273 278 278 278 280 282 287 289 291 291 297 301 294 298 302 308 312 313 315 315 317 319 320 326 330 330 326 326 329 332 334 332 329 330 351 360 356 2 308 0 317 261
268 272 273 275 278 278 280 281 284 284 285 293 299 307 306 302 307 311 315 316 316 315 315 315 320 325 330 327 323 323 327 331 329 326 319 329 352 358 358 346 268 278 286
273 270 273 274 275 277 277 279 279 277 282 287 294 303 308 308 313 314 315 315 315 314 314 313 317 321 326 328 323 320 320 326 328 327 325 314 321 344 355 349 281 230 267
270 268 269 272 273 276 279 276 274 276 281 286 293 297 301 301 304 307 309 311 312 310 311 311 313 317 322 326 326 323 320 319 322 323 324 318 302 309 335 346 337 198 204
269 269 265 263 268 271 272 275 274 276 280 285 292 296 299 301 304 307 308 308 308 307 306 307 308 311 316 320 324 322 320 316 315 319 323 321 310 297 297 316 326 163 189
267 262 261 258 260 267 272 272 273 275 279 285 289 294 297 301 303 306 308 307 305 305 303 302 305 306 310 315 319 320 316 313 310 311 316 319 314 298 286 279 286 234 190
268 265 264 263 262 266 270 273 273 275 279 283 289 293 296 300 302 304 305 304 303 303 301 300 301 302 303 308 314 316 318 309 305 303 304 309 312 307 293 276 259 247 207
263 263 264 262 263 267 270 273 276 276 279 283 288 292 296 299 302 304 303 302 301 299 300 299 299 300 302 303 307 311 312 310 300 295 294 294 297 299 297 283 262 246 232